When you browse on this site, cookies collect data to enhance your experience and personalize the content and advertising you see.
Visit our Privacy Policy to learn more. By continuing to use the site, you agree to this use of cookies and data.
  • In Lithuania
  • List of Countries
  • For 7 days
  • Water Temperature
  • Satellite Maps
  • Weather Map
  • Weather Widgets
  • user-avatar
    Login

    Hourly Weather Tucupita

    Today, 20 April, Saturday

    Time Temperature Precipitation Wind Pressure Humidity
    00:00 +25°C° 0 mm 1 mps 759 mmHg 95%
    01:00 +25°C° 0 mm 1 mps 759 mmHg 96%
    02:00 +24°C° 0 mm 1 mps 759 mmHg 97%
    03:00 +24°C° 0 mm 1 mps 759 mmHg 97%
    04:00 +24°C° 0 mm 1 mps 759 mmHg 98%
    05:00 +24°C° 0 mm 1 mps 759 mmHg 98%
    06:00 +25°C° 0 mm 1 mps 759 mmHg 92%
    07:00 +27°C° 0 mm 1 mps 760 mmHg 86%
    08:00 +28°C° 0 mm 2 mps 760 mmHg 80%
    09:00 +30°C° 0.1 mm 2 mps 760 mmHg 71%
    10:00 +31°C° 0.1 mm 2 mps 760 mmHg 63%
    11:00 +34°C° 0.1 mm 3 mps 760 mmHg 55%
    12:00 +34°C° 0 mm 3 mps 759 mmHg 53%
    13:00 +34°C° 0 mm 2 mps 759 mmHg 51%
    14:00 +35°C° 0 mm 2 mps 758 mmHg 49%
    15:00 +35°C° 0 mm 2 mps 758 mmHg 49%
    16:00 +34°C° 0 mm 3 mps 757 mmHg 49%
    17:00 +34°C° 0 mm 3 mps 757 mmHg 49%
    18:00 +33°C° 0 mm 3 mps 757 mmHg 56%
    19:00 +30°C° 0 mm 3 mps 758 mmHg 62%
    20:00 +28°C° 0 mm 2 mps 758 mmHg 69%
    21:00 +27°C° 0 mm 2 mps 759 mmHg 75%
    22:00 +27°C° 0 mm 2 mps 759 mmHg 81%
    23:00 +26°C° 0 mm 1 mps 760 mmHg 88%

    Tomorrow, 21 April, Sunday

    Time Temperature Precipitation Wind Pressure Humidity
    00:00 +25°C° 0 mm 1 mps 759 mmHg 90%
    01:00 +25°C° 0 mm 1 mps 759 mmHg 92%
    02:00 +24°C° 0 mm 1 mps 759 mmHg 95%
    03:00 +24°C° 0 mm 1 mps 759 mmHg 96%
    04:00 +24°C° 0 mm 1 mps 759 mmHg 97%
    05:00 +24°C° 0 mm 1 mps 759 mmHg 98%
    06:00 +26°C° 0 mm 1 mps 759 mmHg 89%
    07:00 +27°C° 0 mm 1 mps 759 mmHg 81%
    08:00 +29°C° 0 mm 2 mps 759 mmHg 73%
    09:00 +31°C° 0.1 mm 2 mps 759 mmHg 65%
    10:00 +34°C° 0.1 mm 2 mps 759 mmHg 57%
    11:00 +36°C° 0.1 mm 2 mps 759 mmHg 49%
    12:00 +36°C° 0 mm 2 mps 758 mmHg 48%
    13:00 +36°C° 0 mm 2 mps 758 mmHg 47%
    14:00 +36°C° 0 mm 2 mps 757 mmHg 46%
    15:00 +35°C° 0 mm 2 mps 756 mmHg 47%
    16:00 +35°C° 0 mm 2 mps 756 mmHg 47%
    17:00 +35°C° 0 mm 2 mps 755 mmHg 48%
    18:00 +32°C° 0 mm 2 mps 756 mmHg 54%
    19:00 +31°C° 0 mm 2 mps 756 mmHg 59%
    20:00 +29°C° 0 mm 3 mps 757 mmHg 65%
    21:00 +28°C° 0 mm 2 mps 757 mmHg 71%
    22:00 +27°C° 0 mm 2 mps 758 mmHg 78%
    23:00 +26°C° 0 mm 2 mps 759 mmHg 85%

    Day after tomorrow, 22 April, Monday

    Time Temperature Precipitation Wind Pressure Humidity
    00:00 +26°C° 0 mm 1 mps 758 mmHg 88%
    01:00 +25°C° 0 mm 1 mps 758 mmHg 91%
    02:00 +25°C° 0 mm 1 mps 758 mmHg 94%
    03:00 +25°C° 0 mm 1 mps 757 mmHg 95%
    04:00 +25°C° 0 mm 1 mps 757 mmHg 97%
    05:00 +24°C° 0 mm 1 mps 757 mmHg 98%
    06:00 +26°C° 0 mm 1 mps 758 mmHg 90%
    07:00 +27°C° 0 mm 1 mps 758 mmHg 81%
    08:00 +29°C° 0 mm 2 mps 758 mmHg 73%
    09:00 +31°C° 0 mm 2 mps 758 mmHg 65%
    10:00 +34°C° 0 mm 2 mps 758 mmHg 56%
    11:00 +36°C° 0 mm 2 mps 758 mmHg 47%
    12:00 +36°C° 0 mm 2 mps 757 mmHg 47%
    13:00 +36°C° 0 mm 2 mps 756 mmHg 47%
    14:00 +36°C° 0 mm 2 mps 755 mmHg 47%
    15:00 +35°C° 0 mm 2 mps 755 mmHg 47%
    16:00 +35°C° 0 mm 2 mps 754 mmHg 47%
    17:00 +35°C° 0 mm 2 mps 754 mmHg 47%
    18:00 +34°C° 0 mm 2 mps 754 mmHg 54%
    19:00 +31°C° 0 mm 3 mps 755 mmHg 60%
    20:00 +29°C° 0 mm 3 mps 756 mmHg 67%
    21:00 +28°C° 0 mm 2 mps 756 mmHg 73%
    22:00 +27°C° 0 mm 2 mps 757 mmHg 79%
    23:00 +26°C° 0 mm 2 mps 758 mmHg 86%

    23 April, Tuesday

    Time Temperature Precipitation Wind Pressure Humidity
    00:00 +26°C° 0 mm 1 mps 757 mmHg 89%
    01:00 +25°C° 0 mm 1 mps 757 mmHg 93%
    02:00 +24°C° 0 mm 1 mps 756 mmHg 97%
    03:00 +24°C° 0 mm 1 mps 756 mmHg 97%
    04:00 +24°C° 0 mm 1 mps 757 mmHg 98%
    05:00 +24°C° 0 mm 1 mps 757 mmHg 98%
    06:00 +25°C° 0 mm 1 mps 757 mmHg 90%
    07:00 +27°C° 0 mm 1 mps 758 mmHg 82%
    08:00 +29°C° 0 mm 2 mps 758 mmHg 74%
    09:00 +31°C° 0 mm 2 mps 758 mmHg 63%
    10:00 +35°C° 0 mm 2 mps 758 mmHg 51%
    11:00 +37°C° 0 mm 2 mps 758 mmHg 39%
    12:00 +38°C° 0 mm 2 mps 757 mmHg 36%
    13:00 +39°C° 0 mm 2 mps 756 mmHg 32%
    14:00 +41°C° 0 mm 2 mps 754 mmHg 28%
    15:00 +39°C° 0 mm 2 mps 754 mmHg 31%
    16:00 +38°C° 0 mm 2 mps 754 mmHg 35%
    17:00 +37°C° 0 mm 3 mps 753 mmHg 39%
    18:00 +35°C° 0 mm 3 mps 754 mmHg 46%
    19:00 +33°C° 0 mm 3 mps 755 mmHg 53%
    20:00 +30°C° 0 mm 3 mps 756 mmHg 60%
    21:00 +29°C° 0 mm 3 mps 757 mmHg 67%
    22:00 +28°C° 0 mm 2 mps 757 mmHg 73%
    23:00 +27°C° 0 mm 2 mps 758 mmHg 79%

    24 April, Wednesday

    Time Temperature Precipitation Wind Pressure Humidity
    00:00 +27°C° 0 mm 2 mps 757 mmHg 82%
    01:00 +26°C° 0 mm 1 mps 757 mmHg 85%
    02:00 +25°C° 0 mm 1 mps 756 mmHg 88%
    03:00 +25°C° 0 mm 1 mps 756 mmHg 89%
    04:00 +25°C° 0 mm 1 mps 757 mmHg 91%
    05:00 +23°C° 0 mm 0 mps 757 mmHg 92%
    06:00 +24°C° 0 mm 0 mps 757 mmHg 87%
    07:00 +25°C° 0 mm 0 mps 758 mmHg 82%
    08:00 +26°C° 0 mm 0 mps 759 mmHg 78%
    09:00 +30°C° 0.1 mm 1 mps 759 mmHg 71%
    10:00 +31°C° 0.1 mm 1 mps 759 mmHg 65%
    11:00 +32°C° 0.1 mm 1 mps 759 mmHg 59%
    12:00 +34°C° 0 mm 2 mps 758 mmHg 55%
    13:00 +35°C° 0 mm 2 mps 757 mmHg 52%
    14:00 +36°C° 0 mm 2 mps 756 mmHg 49%
    15:00 +35°C° 0.1 mm 2 mps 756 mmHg 51%
    16:00 +35°C° 0.1 mm 2 mps 756 mmHg 53%
    17:00 +34°C° 0.1 mm 2 mps 756 mmHg 56%
    18:00 +32°C° 0.1 mm 2 mps 756 mmHg 63%
    19:00 +30°C° 0.1 mm 2 mps 757 mmHg 70%
    20:00 +29°C° 0.1 mm 2 mps 758 mmHg 77%
    21:00 +28°C° 0 mm 2 mps 758 mmHg 80%
    22:00 +28°C° 0 mm 1 mps 759 mmHg 83%
    23:00 +27°C° 0 mm 1 mps 759 mmHg 86%

    25 April, Thursday

    Time Temperature Precipitation Wind Pressure Humidity
    00:00 +27°C° 0 mm 1 mps 758 mmHg 88%
    01:00 +27°C° 0 mm 1 mps 758 mmHg 90%
    02:00 +24°C° 0 mm 0 mps 757 mmHg 92%
    03:00 +24°C° 0.8 mm 0 mps 757 mmHg 94%
    04:00 +26°C° 0.8 mm 1 mps 757 mmHg 96%
    05:00 +26°C° 0.8 mm 1 mps 758 mmHg 97%
    06:00 +26°C° 0 mm 1 mps 758 mmHg 93%
    07:00 +27°C° 0 mm 1 mps 759 mmHg 90%
    08:00 +28°C° 0 mm 1 mps 759 mmHg 86%
    09:00 +29°C° 0.3 mm 1 mps 759 mmHg 78%
    10:00 +31°C° 0.3 mm 2 mps 759 mmHg 71%
    11:00 +32°C° 0.3 mm 2 mps 759 mmHg 63%
    12:00 +32°C° 0.3 mm 2 mps 758 mmHg 61%
    13:00 +34°C° 0.3 mm 2 mps 758 mmHg 59%
    14:00 +34°C° 0.3 mm 2 mps 757 mmHg 57%
    15:00 +34°C° 0.1 mm 2 mps 757 mmHg 59%
    16:00 +33°C° 0.1 mm 3 mps 757 mmHg 60%
    17:00 +33°C° 0.1 mm 3 mps 757 mmHg 62%
    18:00 +31°C° 0 mm 2 mps 758 mmHg 68%
    19:00 +29°C° 0 mm 2 mps 758 mmHg 74%
    20:00 +28°C° 0 mm 2 mps 759 mmHg 81%
    21:00 +27°C° 0 mm 2 mps 759 mmHg 83%
    22:00 +27°C° 0 mm 1 mps 759 mmHg 86%
    23:00 +26°C° 0 mm 1 mps 760 mmHg 89%
    Show more